When you browse on this site, cookies collect data to enhance your experience and personalize the content and advertising you see.
Visit our Privacy Policy to learn more. By continuing to use the site, you agree to this use of cookies and data.

Météo par heure à Tysalovo

Ce jour, 6 Juillet, Lundi

Heure Température Précipitation Vent Pression Humidité
00:00 +22°C° 0 mm 1 m/s 728 mmHg 83%
01:00 +22°C° 0 mm 1 m/s 728 mmHg 80%
02:00 +16°C° 0 mm 0 m/s 728 mmHg 97%
03:00 +19°C° 0 mm 1 m/s 727 mmHg 94%
04:00 +19°C° 0 mm 1 m/s 727 mmHg 93%
05:00 +19°C° 0 mm 1 m/s 727 mmHg 93%
06:00 +19°C° 0 mm 1 m/s 727 mmHg 93%
07:00 +20°C° 0 mm 1 m/s 727 mmHg 94%
08:00 +20°C° 0 mm 0 m/s 727 mmHg 93%
09:00 +23°C° 0 mm 1 m/s 727 mmHg 92%
10:00 +24°C° 0 mm 1 m/s 727 mmHg 94%
11:00 +25°C° 0 mm 1 m/s 727 mmHg 91%
12:00 +26°C° 0 mm 2 m/s 727 mmHg 89%
13:00 +26°C° 0 mm 2 m/s 726 mmHg 88%
14:00 +27°C° 0 mm 2 m/s 726 mmHg 85%
15:00 +27°C° 0 mm 2 m/s 725 mmHg 78%
16:00 +27°C° 0 mm 2 m/s 724 mmHg 78%
17:00 +27°C° 0 mm 2 m/s 724 mmHg 79%
18:00 +27°C° 0 mm 1 m/s 724 mmHg 82%
19:00 +26°C° 0 mm 1 m/s 724 mmHg 88%
20:00 +25°C° 0 mm 1 m/s 724 mmHg 91%
21:00 +23°C° 0 mm 0 m/s 724 mmHg 89%
22:00 +22°C° 0 mm 0 m/s 724 mmHg 93%
23:00 +23°C° 0 mm 1 m/s 724 mmHg 94%

Demain, 7 Juillet, Mardi

Heure Température Précipitation Vent Pression Humidité
00:00 +23°C° 0 mm 1 m/s 723 mmHg 93%
01:00 +23°C° 0 mm 1 m/s 723 mmHg 92%
02:00 +22°C° 0 mm 1 m/s 723 mmHg 91%
03:00 +22°C° 0 mm 1 m/s 723 mmHg 90%
04:00 +19°C° 0.6 mm 4 m/s 723 mmHg 91%
05:00 +17°C° 0 mm 6 m/s 723 mmHg 86%
06:00 +17°C° 0.3 mm 3 m/s 723 mmHg 86%
07:00 +17°C° 0 mm 4 m/s 724 mmHg 84%
08:00 +17°C° 0 mm 3 m/s 724 mmHg 83%
09:00 +18°C° 0 mm 3 m/s 724 mmHg 81%
10:00 +15°C° 0.1 mm 5 m/s 726 mmHg 90%
11:00 +13°C° 5.3 mm 6 m/s 726 mmHg 92%
12:00 +14°C° 2.8 mm 5 m/s 726 mmHg 94%
13:00 +15°C° 1.6 mm 5 m/s 726 mmHg 91%
14:00 +18°C° 0 mm 3 m/s 726 mmHg 85%
15:00 +19°C° 0 mm 3 m/s 726 mmHg 83%
16:00 +19°C° 0 mm 4 m/s 726 mmHg 80%
17:00 +19°C° 0 mm 3 m/s 727 mmHg 77%
18:00 +19°C° 0 mm 4 m/s 727 mmHg 76%
19:00 +18°C° 0 mm 3 m/s 727 mmHg 80%
20:00 +17°C° 0 mm 2 m/s 728 mmHg 86%
21:00 +16°C° 0 mm 1 m/s 728 mmHg 82%
22:00 +16°C° 0 mm 1 m/s 728 mmHg 83%
23:00 +15°C° 0 mm 1 m/s 728 mmHg 84%

Après-demain, 8 Juillet, Mercredi

Heure Température Précipitation Vent Pression Humidité
00:00 +14°C° 0 mm 1 m/s 728 mmHg 84%
01:00 +14°C° 0 mm 1 m/s 728 mmHg 85%
02:00 +12°C° 0 mm 0 m/s 729 mmHg 89%
03:00 +12°C° 0 mm 0 m/s 729 mmHg 89%
04:00 +12°C° 0 mm 1 m/s 729 mmHg 88%
05:00 +12°C° 0 mm 1 m/s 729 mmHg 87%
06:00 +12°C° 0 mm 1 m/s 729 mmHg 87%
07:00 +12°C° 0 mm 0 m/s 730 mmHg 95%
08:00 +14°C° 0 mm 1 m/s 730 mmHg 95%
09:00 +15°C° 0 mm 2 m/s 730 mmHg 95%
10:00 +17°C° 0 mm 3 m/s 731 mmHg 91%
11:00 +17°C° 0 mm 4 m/s 731 mmHg 87%
12:00 +18°C° 0 mm 4 m/s 731 mmHg 87%
13:00 +19°C° 0 mm 3 m/s 731 mmHg 88%
14:00 +18°C° 0 mm 4 m/s 731 mmHg 86%
15:00 +19°C° 0 mm 3 m/s 731 mmHg 85%
16:00 +18°C° 0 mm 3 m/s 731 mmHg 86%
17:00 +19°C° 0 mm 3 m/s 731 mmHg 86%
18:00 +19°C° 0.2 mm 3 m/s 730 mmHg 94%
19:00 +18°C° 0.2 mm 1 m/s 730 mmHg 95%
20:00 +18°C° 0.9 mm 1 m/s 730 mmHg 99%
21:00 +16°C° 0 mm 0 m/s 731 mmHg 98%
22:00 +18°C° 0 mm 1 m/s 730 mmHg 98%
23:00 +17°C° 0 mm 2 m/s 731 mmHg 99%

9 Juillet, Jeudi

Heure Température Précipitation Vent Pression Humidité
00:00 +16°C° 0 mm 2 m/s 730 mmHg 100%
01:00 +16°C° 0 mm 1 m/s 730 mmHg 100%
02:00 +16°C° 0 mm 2 m/s 730 mmHg 100%
03:00 +16°C° 0 mm 1 m/s 730 mmHg 100%
04:00 +16°C° 0 mm 1 m/s 730 mmHg 99%
05:00 +16°C° 0 mm 1 m/s 730 mmHg 99%
06:00 +16°C° 0 mm 1 m/s 730 mmHg 99%
07:00 +16°C° 0 mm 1 m/s 731 mmHg 99%
08:00 +18°C° 0 mm 1 m/s 731 mmHg 99%
09:00 +18°C° 0 mm 2 m/s 731 mmHg 100%
10:00 +18°C° 0.3 mm 3 m/s 731 mmHg 100%
11:00 +18°C° 0.4 mm 2 m/s 731 mmHg 100%
12:00 +21°C° 0.7 mm 1 m/s 732 mmHg 97%
13:00 +21°C° 0 mm 2 m/s 732 mmHg 93%
14:00 +22°C° 0 mm 3 m/s 731 mmHg 89%
15:00 +22°C° 0 mm 4 m/s 731 mmHg 86%
16:00 +22°C° 0 mm 3 m/s 731 mmHg 83%
17:00 +22°C° 0 mm 3 m/s 731 mmHg 82%
18:00 +22°C° 0 mm 3 m/s 731 mmHg 82%
19:00 +21°C° 0 mm 3 m/s 731 mmHg 88%
20:00 +20°C° 0 mm 2 m/s 731 mmHg 94%
21:00 +20°C° 0 mm 1 m/s 732 mmHg 97%
22:00 +20°C° 0 mm 1 m/s 732 mmHg 99%
23:00 +19°C° 0 mm 1 m/s 732 mmHg 96%

10 Juillet, Vendredi

Heure Température Précipitation Vent Pression Humidité
00:00 +19°C° 0 mm 1 m/s 732 mmHg 88%
01:00 +19°C° 0 mm 1 m/s 732 mmHg 87%
02:00 +18°C° 0 mm 1 m/s 732 mmHg 85%
03:00 +18°C° 0 mm 1 m/s 732 mmHg 84%
04:00 +18°C° 0 mm 1 m/s 732 mmHg 82%
05:00 +18°C° 0 mm 1 m/s 732 mmHg 79%
06:00 +18°C° 0 mm 1 m/s 732 mmHg 80%
07:00 +19°C° 0 mm 1 m/s 732 mmHg 89%
08:00 +20°C° 0 mm 1 m/s 733 mmHg 88%
09:00 +20°C° 0 mm 2 m/s 733 mmHg 85%
10:00 +21°C° 0 mm 2 m/s 733 mmHg 83%
11:00 +23°C° 0 mm 2 m/s 733 mmHg 81%
12:00 +24°C° 0 mm 1 m/s 733 mmHg 77%
13:00 +25°C° 0 mm 1 m/s 733 mmHg 73%
14:00 +25°C° 0 mm 2 m/s 733 mmHg 74%
15:00 +25°C° 0 mm 2 m/s 732 mmHg 86%
16:00 +23°C° 0 mm 0 m/s 732 mmHg 80%
17:00 +26°C° 0 mm 1 m/s 731 mmHg 81%
18:00 +25°C° 0 mm 1 m/s 731 mmHg 86%
19:00 +25°C° 0 mm 1 m/s 731 mmHg 87%
20:00 +25°C° 0 mm 1 m/s 731 mmHg 92%
21:00 +24°C° 0 mm 1 m/s 731 mmHg 93%
22:00 +23°C° 0 mm 2 m/s 731 mmHg 93%
23:00 +23°C° 0 mm 2 m/s 731 mmHg 92%

11 Juillet, Samedi

Heure Température Précipitation Vent Pression Humidité
00:00 +21°C° 0 mm 2 m/s 731 mmHg 93%
01:00 +21°C° 0 mm 3 m/s 731 mmHg 94%
02:00 +20°C° 0 mm 3 m/s 731 mmHg 94%
03:00 +20°C° 0 mm 3 m/s 731 mmHg 93%
04:00 +20°C° 0 mm 3 m/s 730 mmHg 93%
05:00 +20°C° 0 mm 3 m/s 731 mmHg 93%
06:00 +20°C° 0 mm 3 m/s 730 mmHg 94%
07:00 +21°C° 0 mm 3 m/s 731 mmHg 93%
08:00 +22°C° 0 mm 4 m/s 730 mmHg 92%
09:00 +24°C° 0 mm 3 m/s 730 mmHg 92%
10:00 +25°C° 0 mm 3 m/s 731 mmHg 92%
11:00 +26°C° 0 mm 3 m/s 731 mmHg 90%
12:00 +27°C° 0 mm 3 m/s 730 mmHg 87%
13:00 +27°C° 0 mm 3 m/s 730 mmHg 86%
14:00 +27°C° 0 mm 4 m/s 730 mmHg 85%
15:00 +27°C° 0 mm 4 m/s 730 mmHg 83%
16:00 +27°C° 0 mm 4 m/s 729 mmHg 85%
17:00 +27°C° 0 mm 4 m/s 729 mmHg 84%
18:00 +27°C° 0 mm 3 m/s 729 mmHg 84%
19:00 +26°C° 0 mm 3 m/s 729 mmHg 88%
20:00 +25°C° 0 mm 3 m/s 729 mmHg 92%
21:00 +24°C° 0 mm 2 m/s 729 mmHg 95%
22:00 +24°C° 0 mm 2 m/s 729 mmHg 96%
23:00 +23°C° 0 mm 2 m/s 729 mmHg 96%
Voir plus